Tracking 25963 objects as of 12-Aug-2022
HD Live streaming from Space Station
objects crossing your sky now

ELECTRON KICK STAGE R/B

Track ELECTRON KICK STAGE R/B now!
10-day predictions


NORAD ID: 51848
Int'l Code: 2020-020B
Perigee: 475.8 km
Apogee: 554.6 km
Inclination: 97.1 °
Period: 94.8 minutes
Semi major axis: 6886 km
RCS: Unknown
Launch date: February 28, 2022
Source: United States (US)
Launch site: Rocket Lab Launch Complex (RLLC)

Note: This is a ROCKET BODY
aabbcc
Your satellite tracking list
Your tracking list is empty




NASA's NSSDC Master Catalog

Two Line Element Set (TLE):
1 51848U 22020B   22224.08725739  .00006741  00000-0  30909-3 0  9997
2 51848  97.0716 266.5611 0057251 171.2650 188.9596 15.19260482 24917
Source of the keplerian elements: AFSPC